contact:dominique.lefevre@mio.osupytheas.fr, maurice.libes@osupytheas.fr, didier.mallarino@osupytheas.fr
Project:EMSO http://www.emso-fr.org/EMSO-France
Depth: 2436.0 m
Title:EMSO Ligure Ouest : Data MII capteur AQUADOPP
Date,Latitude,Longitude,X_East,Y_North,Z_Up,Amplitude_X,Amplitude_Y,Amplitude_Z,Batterie,SoundSpeed,Heading,Pitch,Roll,Pressure,TIS,Speed,Direction
, degrees North, degrees East, m.s-1, m.s-1,m.s-1, 1, 1, 1, Volt, m.s-1, degree, degree, degree, dbar, degree_C, m.s-1, degree
2019-07-15T00:01:43,42.805,6.029,-0.011,-0.028,-0.014,102.0,104.0,99.0,13.4,1505.3,325.1,-0.7,1.9,2470.079,13.33,0.03,201.4
2019-07-15T00:04:44,42.805,6.029,0.014,-0.025,-0.034,103.0,105.0,100.0,13.4,1505.3,324.4,-0.7,1.8,2470.068,13.33,0.028,150.7
2019-07-15T00:07:45,42.805,6.029,0.011,0.001,-0.014,104.0,105.0,100.0,13.4,1505.3,324.4,-0.8,1.8,2470.018,13.33,0.011,84.8
2019-07-15T00:10:46,42.805,6.029,0.023,-0.011,-0.021,103.0,105.0,100.0,13.4,1505.3,324.7,-0.7,1.8,2470.025,13.33,0.025,115.6
2019-07-15T00:13:47,42.805,6.029,0.008,-0.012,-0.026,102.0,106.0,99.0,13.3,1505.3,324.4,-0.7,1.8,2470.023,13.33,0.014,146.3
2019-07-15T00:16:48,42.805,6.029,0.0,-0.031,-0.016,105.0,105.0,99.0,13.4,1505.3,326.9,-0.7,1.8,2470.024,13.33,0.03,180.0
2019-07-15T00:19:49,42.805,6.029,0.01,-0.018,0.008,104.0,105.0,99.0,13.4,1505.3,326.0,-0.7,1.9,2470.037,13.33,0.02,150.9
2019-07-15T00:22:50,42.805,6.029,0.008,-0.001,-0.003,104.0,104.0,99.0,13.4,1505.3,325.5,-0.7,1.8,2470.045,13.33,0.008,97.1
2019-07-15T00:25:51,42.805,6.029,0.032,-0.021,-0.04,103.0,103.0,99.0,13.4,1505.3,324.9,-0.7,1.8,2470.06,13.33,0.038,123.3
2019-07-15T00:28:52,42.805,6.029,0.015,-0.024,-0.035,102.0,105.0,100.0,13.3,1505.3,325.2,-0.7,1.8,2470.027,13.32,0.028,148.0
2019-07-15T00:31:53,42.805,6.029,0.012,-0.035,-0.055,103.0,105.0,99.0,13.4,1505.3,327.2,-0.7,1.8,2470.048,13.32,0.037,161.1
2019-07-15T00:34:54,42.805,6.029,0.029,-0.026,-0.023,105.0,105.0,99.0,13.4,1505.3,327.3,-0.7,1.8,2470.074,13.32,0.038,131.9
2019-07-15T00:37:55,42.805,6.029,0.012,-0.027,-0.051,103.0,105.0,99.0,13.4,1505.3,324.2,-0.7,1.9,2470.033,13.32,0.029,156.0
2019-07-15T00:40:56,42.805,6.029,0.029,-0.03,0.014,104.0,103.0,100.0,13.3,1505.3,325.1,-0.7,1.8,2470.032,13.32,0.041,136.0
2019-07-15T00:43:57,42.805,6.029,-0.002,-0.02,0.006,102.0,105.0,100.0,13.4,1505.3,323.0,-0.7,1.9,2470.042,13.32,0.02,185.7
2019-07-15T00:46:58,42.805,6.029,0.015,-0.015,-0.037,102.0,104.0,100.0,13.4,1505.3,325.5,-0.7,1.9,2470.028,13.32,0.021,135.0
2019-07-15T00:49:59,42.805,6.029,0.014,-0.013,-0.012,103.0,105.0,100.0,13.3,1505.3,326.0,-0.7,1.9,2470.0,13.32,0.019,132.9
2019-07-15T00:53:00,42.805,6.029,0.035,-0.026,-0.01,102.0,106.0,99.0,13.3,1505.3,325.6,-0.7,1.8,2470.035,13.32,0.043,126.6
2019-07-15T00:56:01,42.805,6.029,0.038,0.015,-0.015,104.0,105.0,98.0,13.4,1505.3,324.5,-0.8,1.8,2470.014,13.32,0.04,68.5
2019-07-15T00:59:02,42.805,6.029,0.024,-0.009,-0.03,104.0,106.0,99.0,13.4,1505.3,326.2,-0.7,1.8,2470.013,13.32,0.025,110.6
2019-07-15T01:02:03,42.805,6.029,0.04,-0.012,-0.005,103.0,106.0,99.0,13.3,1505.3,325.4,-0.7,1.8,2470.073,13.32,0.041,106.7
2019-07-15T01:05:04,42.805,6.029,0.022,-0.014,-0.023,103.0,106.0,101.0,13.3,1505.3,327.0,-0.7,1.9,2470.04,13.33,0.026,122.5
2019-07-15T01:08:05,42.805,6.029,-0.001,-0.013,-0.014,104.0,104.0,100.0,13.4,1505.3,327.4,-0.7,1.8,2469.998,13.33,0.013,184.4
2019-07-15T01:11:06,42.805,6.029,0.008,-0.016,0.0,104.0,106.0,99.0,13.4,1505.3,323.6,-0.7,1.9,2469.997,13.33,0.017,153.4
2019-07-15T01:14:07,42.805,6.029,-0.001,-0.025,0.011,102.0,105.0,99.0,13.3,1505.3,325.1,-0.7,1.8,2470.003,13.33,0.025,182.3
2019-07-15T01:17:08,42.805,6.029,0.016,-0.006,-0.016,103.0,106.0,99.0,13.4,1505.3,325.8,-0.7,1.8,2469.992,13.33,0.017,110.6
2019-07-15T01:20:09,42.805,6.029,0.007,-0.024,-0.017,101.0,107.0,99.0,13.3,1505.3,324.5,-0.7,1.8,2470.08,13.33,0.025,163.7
2019-07-15T01:23:10,42.805,6.029,0.017,0.001,-0.003,105.0,104.0,99.0,13.4,1505.3,326.3,-0.7,1.8,2469.989,13.33,0.017,86.6
2019-07-15T01:26:11,42.805,6.029,0.011,0.003,-0.042,106.0,105.0,99.0,13.4,1505.3,324.5,-0.7,1.8,2470.038,13.33,0.011,74.7
2019-07-15T01:29:12,42.805,6.029,0.048,-0.028,-0.006,103.0,105.0,98.0,13.4,1505.3,322.8,-0.7,1.9,2470.069,13.33,0.055,120.3
2019-07-15T01:32:13,42.805,6.029,-0.009,-0.023,0.015,103.0,104.0,99.0,13.3,1505.3,325.2,-0.7,1.9,2469.992,13.32,0.024,201.4
2019-07-15T01:35:14,42.805,6.029,0.035,-0.017,-0.033,102.0,104.0,99.0,13.4,1505.3,322.8,-0.8,1.8,2470.065,13.32,0.038,115.9
2019-07-15T01:38:15,42.805,6.029,0.038,-0.009,-0.017,103.0,104.0,99.0,13.4,1505.3,324.2,-0.7,1.8,2470.061,13.32,0.039,103.3
2019-07-15T01:41:16,42.805,6.029,0.032,-0.027,-0.036,102.0,103.0,98.0,13.4,1505.3,326.9,-0.8,1.8,2470.034,13.32,0.041,130.2
2019-07-15T01:44:17,42.805,6.029,0.031,-0.008,0.006,107.0,105.0,99.0,13.4,1505.3,325.5,-0.7,1.8,2470.04,13.32,0.032,104.5
2019-07-15T01:47:18,42.805,6.029,0.016,-0.008,-0.045,103.0,103.0,99.0,13.4,1505.3,324.5,-0.7,1.8,2470.003,13.33,0.017,116.6
2019-07-15T01:50:19,42.805,6.029,0.015,-0.011,-0.03,102.0,103.0,98.0,13.3,1505.3,327.5,-0.7,1.8,2470.007,13.33,0.018,126.3
2019-07-15T01:53:20,42.805,6.029,0.024,-0.017,-0.039,102.0,105.0,97.0,13.4,1505.3,324.2,-0.7,1.8,2470.058,13.33,0.029,125.3
2019-07-15T01:56:21,42.805,6.029,0.034,-0.019,-0.009,102.0,103.0,100.0,13.4,1505.3,324.9,-0.7,1.8,2470.017,13.33,0.038,119.2
2019-07-15T01:59:22,42.805,6.029,0.024,-0.028,-0.035,101.0,103.0,99.0,13.4,1505.3,326.4,-0.7,1.8,2470.074,13.33,0.036,139.4
2019-07-15T02:02:23,42.805,6.029,0.0,-0.018,-0.029,103.0,103.0,98.0,13.4,1505.3,323.3,-0.7,1.8,2470.043,13.33,0.018,180.0
2019-07-15T02:05:24,42.805,6.029,0.006,-0.022,-0.033,102.0,104.0,99.0,13.4,1505.3,327.3,-0.7,1.9,2470.073,13.33,0.022,164.7
2019-07-15T02:08:25,42.805,6.029,0.042,-0.01,-0.02,102.0,104.0,100.0,13.4,1505.3,326.4,-0.8,1.8,2470.066,13.33,0.043,103.4
2019-07-15T02:11:26,42.805,6.029,0.013,0.0,-0.039,103.0,103.0,98.0,13.4,1505.3,324.4,-0.7,1.8,2470.068,13.33,0.013,90.0
2019-07-15T02:14:27,42.805,6.029,-0.009,-0.012,-0.039,104.0,105.0,99.0,13.4,1505.3,324.3,-0.7,1.9,2470.05,13.33,0.015,216.9
2019-07-15T02:17:28,42.805,6.029,0.014,0.014,-0.001,103.0,104.0,99.0,13.4,1505.3,324.0,-0.7,1.9,2470.001,13.33,0.019,45.0
2019-07-15T02:20:29,42.805,6.029,0.027,0.008,-0.001,103.0,104.0,99.0,13.4,1505.3,325.9,-0.7,1.8,2470.012,13.33,0.028,73.5
2019-07-15T02:23:30,42.805,6.029,0.025,-0.025,-0.028,102.0,105.0,99.0,13.4,1505.3,325.2,-0.7,1.8,2470.059,13.33,0.035,135.0
2019-07-15T02:26:31,42.805,6.029,0.023,-0.014,-0.034,104.0,103.0,101.0,13.4,1505.3,322.9,-0.7,1.8,2470.04,13.33,0.026,121.3
2019-07-15T02:29:32,42.805,6.029,0.014,-0.019,-0.023,102.0,102.0,101.0,13.4,1505.3,327.2,-0.7,1.9,2470.018,13.33,0.023,143.6
2019-07-15T02:32:33,42.805,6.029,0.011,-0.002,-0.012,105.0,105.0,99.0,13.4,1505.3,324.9,-0.7,1.8,2470.069,13.33,0.011,100.3
2019-07-15T02:35:34,42.805,6.029,0.009,-0.031,-0.026,102.0,104.0,98.0,13.3,1505.3,323.0,-0.7,1.8,2470.055,13.33,0.032,163.8
2019-07-15T02:38:35,42.805,6.029,0.031,-0.003,-0.031,102.0,105.0,99.0,13.4,1505.3,326.4,-0.7,1.8,2470.05,13.33,0.031,95.5
2019-07-15T02:41:36,42.805,6.029,0.011,-0.007,-0.028,104.0,103.0,100.0,13.4,1505.3,324.9,-0.8,1.8,2470.057,13.33,0.013,122.5
2019-07-15T02:44:37,42.805,6.029,0.016,0.003,-0.04,101.0,104.0,101.0,13.4,1505.3,323.2,-0.8,1.8,2470.036,13.33,0.016,79.4
2019-07-15T02:47:38,42.805,6.029,0.017,-0.008,-0.048,104.0,104.0,98.0,13.3,1505.3,326.8,-0.7,1.8,2470.071,13.33,0.018,115.2
2019-07-15T02:50:39,42.805,6.029,0.012,-0.015,-0.028,101.0,104.0,97.0,13.4,1505.3,324.9,-0.7,1.8,2470.08,13.33,0.019,141.3
2019-07-15T02:53:40,42.805,6.029,0.021,-0.017,-0.026,102.0,104.0,98.0,13.4,1505.3,327.5,-0.7,1.8,2470.058,13.33,0.027,129.0
2019-07-15T02:56:41,42.805,6.029,0.016,-0.017,0.011,101.0,104.0,98.0,13.4,1505.3,328.3,-0.7,1.8,2470.066,13.33,0.023,136.7
2019-07-15T02:59:42,42.805,6.029,-0.019,-0.006,-0.059,103.0,102.0,99.0,13.3,1505.3,324.4,-0.7,1.9,2470.093,13.33,0.019,252.5
2019-07-15T03:02:43,42.805,6.029,0.007,-0.006,-0.029,102.0,104.0,99.0,13.4,1505.3,326.6,-0.7,1.8,2470.066,13.33,0.009,130.6
2019-07-15T03:05:44,42.805,6.029,0.02,-0.02,-0.023,103.0,103.0,100.0,13.3,1505.3,325.8,-0.7,1.8,2470.069,13.33,0.028,135.0
2019-07-15T03:08:45,42.805,6.029,0.011,-0.006,0.003,102.0,104.0,99.0,13.4,1505.3,325.9,-0.7,1.9,2470.061,13.33,0.012,118.6
2019-07-15T03:11:46,42.805,6.029,-0.03,-0.007,-0.066,103.0,104.0,98.0,13.4,1505.3,326.8,-0.7,1.9,2470.128,13.33,0.03,256.9
2019-07-15T03:14:47,42.805,6.029,0.003,0.0,-0.033,104.0,105.0,98.0,13.4,1505.3,325.3,-0.8,1.9,2470.074,13.33,0.003,90.0
2019-07-15T03:17:48,42.805,6.029,0.008,-0.003,-0.033,102.0,105.0,98.0,13.4,1505.3,327.8,-0.7,1.8,2470.075,13.33,0.008,110.6
2019-07-15T03:20:49,42.805,6.029,0.041,-0.002,-0.018,102.0,105.0,98.0,13.3,1505.3,328.2,-0.7,1.8,2470.083,13.33,0.041,92.8
2019-07-15T03:23:50,42.805,6.029,0.015,-0.022,-0.011,103.0,104.0,99.0,13.4,1505.3,323.3,-0.7,1.8,2470.081,13.33,0.026,145.7
2019-07-15T03:26:51,42.805,6.029,0.006,-0.038,-0.017,102.0,105.0,98.0,13.4,1505.3,324.3,-0.7,1.9,2470.108,13.33,0.038,171.0
2019-07-15T03:29:52,42.805,6.029,0.034,-0.01,-0.025,101.0,104.0,99.0,13.4,1505.3,324.6,-0.7,1.9,2470.064,13.33,0.035,106.4
2019-07-15T03:32:53,42.805,6.029,0.02,-0.004,-0.035,102.0,105.0,98.0,13.4,1505.3,326.4,-0.7,1.8,2470.132,13.33,0.02,101.3
2019-07-15T03:35:54,42.805,6.029,-0.006,0.0,-0.047,103.0,105.0,98.0,13.4,1505.3,325.3,-0.7,1.9,2470.11,13.33,0.006,270.0
2019-07-15T03:38:55,42.805,6.029,0.021,-0.018,0.007,104.0,107.0,99.0,13.3,1505.3,324.7,-0.7,1.8,2470.088,13.33,0.027,130.6
2019-07-15T03:41:56,42.805,6.029,0.042,-0.015,-0.007,103.0,107.0,98.0,13.3,1505.3,325.7,-0.7,1.9,2470.105,13.33,0.044,109.6
2019-07-15T03:44:57,42.805,6.029,0.03,-0.026,-0.012,103.0,105.0,100.0,13.3,1505.3,326.8,-0.7,1.8,2470.071,13.33,0.039,130.9
2019-07-15T03:47:58,42.805,6.029,0.001,-0.001,-0.04,103.0,104.0,99.0,13.3,1505.3,326.6,-0.8,1.8,2470.06,13.33,0.001,135.0
2019-07-15T03:50:59,42.805,6.029,0.004,-0.025,-0.016,103.0,104.0,99.0,13.4,1505.3,325.5,-0.7,1.8,2470.085,13.33,0.025,170.9
2019-07-15T03:54:00,42.805,6.029,0.014,-0.022,-0.052,103.0,106.0,99.0,13.3,1505.3,324.6,-0.7,1.8,2470.131,13.33,0.026,147.5
2019-07-15T03:57:01,42.805,6.029,0.012,-0.005,-0.008,102.0,104.0,99.0,13.4,1505.3,325.3,-0.7,1.8,2470.088,13.33,0.013,112.6
2019-07-15T04:00:02,42.805,6.029,0.03,-0.01,-0.011,103.0,105.0,98.0,13.3,1505.3,325.5,-0.7,1.9,2470.123,13.33,0.031,108.4
2019-07-15T04:03:03,42.805,6.029,0.0,-0.031,-0.057,101.0,105.0,99.0,13.4,1505.3,326.0,-0.7,1.9,2470.09,13.33,0.03,180.0
2019-07-15T04:06:04,42.805,6.029,0.036,-0.003,-0.001,102.0,105.0,99.0,13.4,1505.3,326.3,-0.7,1.8,2470.098,13.33,0.036,94.8
2019-07-15T04:09:05,42.805,6.029,0.029,-0.007,0.011,103.0,105.0,99.0,13.4,1505.3,323.9,-0.7,1.8,2470.111,13.33,0.029,103.6
2019-07-15T04:12:06,42.805,6.029,0.004,-0.022,-0.018,103.0,104.0,99.0,13.4,1505.3,326.0,-0.7,1.8,2470.125,13.33,0.022,169.7
2019-07-15T04:15:07,42.805,6.029,0.0,-0.016,0.022,101.0,106.0,98.0,13.4,1505.3,327.9,-0.7,1.8,2470.1,13.33,0.016,180.0
2019-07-15T04:18:08,42.805,6.029,0.015,0.001,-0.001,102.0,106.0,98.0,13.3,1505.3,327.2,-0.7,1.8,2470.153,13.33,0.015,86.2
2019-07-15T04:21:09,42.805,6.029,0.015,-0.013,-0.016,102.0,105.0,99.0,13.4,1505.3,324.4,-0.7,1.8,2470.134,13.33,0.019,130.9
2019-07-15T04:24:10,42.805,6.029,0.008,-0.02,-0.045,103.0,105.0,100.0,13.4,1505.3,325.6,-0.7,1.9,2470.116,13.33,0.021,158.2
2019-07-15T04:27:11,42.805,6.029,0.019,-0.005,-0.005,104.0,105.0,98.0,13.3,1505.3,326.6,-0.7,1.8,2470.09,13.33,0.019,104.7
2019-07-15T04:30:12,42.805,6.029,0.015,-0.01,0.008,103.0,105.0,98.0,13.3,1505.3,325.7,-0.7,1.8,2470.158,13.33,0.018,123.7
2019-07-15T04:33:13,42.805,6.029,0.038,-0.016,-0.013,102.0,107.0,98.0,13.3,1505.3,323.7,-0.7,1.8,2470.131,13.33,0.041,112.8
2019-07-15T04:36:14,42.805,6.029,0.021,0.003,0.021,101.0,106.0,97.0,13.4,1505.3,323.2,-0.7,1.8,2470.121,13.33,0.021,81.9
2019-07-15T04:39:15,42.805,6.029,0.001,-0.027,-0.025,101.0,104.0,100.0,13.4,1505.3,326.5,-0.7,1.8,2470.129,13.33,0.027,177.9
2019-07-15T04:42:16,42.805,6.029,0.008,-0.004,-0.019,101.0,106.0,98.0,13.3,1505.3,326.4,-0.7,1.8,2470.149,13.33,0.008,116.6
2019-07-15T04:45:17,42.805,6.029,-0.014,-0.007,-0.031,102.0,105.0,97.0,13.4,1505.3,324.4,-0.7,1.8,2470.096,13.33,0.015,243.4
2019-07-15T04:48:18,42.805,6.029,-0.001,-0.005,-0.033,104.0,103.0,98.0,13.3,1505.3,324.9,-0.7,1.9,2470.108,13.33,0.005,191.3
2019-07-15T04:51:19,42.805,6.029,-0.001,-0.025,-0.04,101.0,105.0,97.0,13.4,1505.3,325.0,-0.7,1.8,2470.124,13.33,0.025,182.3
2019-07-15T04:54:20,42.805,6.029,0.0,-0.011,-0.047,101.0,107.0,98.0,13.4,1505.3,325.6,-0.7,1.8,2470.169,13.33,0.011,180.0
2019-07-15T04:57:21,42.805,6.029,0.04,0.004,-0.024,102.0,105.0,99.0,13.4,1505.3,327.3,-0.7,1.8,2470.131,13.33,0.04,84.3
2019-07-15T05:00:22,42.805,6.029,0.007,-0.011,-0.038,100.0,106.0,99.0,13.3,1505.3,325.0,-0.8,1.8,2470.116,13.33,0.013,147.5
2019-07-15T05:03:23,42.805,6.029,-0.003,-0.024,-0.034,102.0,105.0,99.0,13.4,1505.3,323.3,-0.7,1.8,2470.142,13.33,0.024,187.1
2019-07-15T05:06:24,42.805,6.029,0.017,-0.008,-0.054,102.0,104.0,98.0,13.4,1505.3,325.7,-0.7,1.8,2470.115,13.33,0.018,115.2
2019-07-15T05:09:25,42.805,6.029,0.015,0.002,-0.039,102.0,103.0,98.0,13.3,1505.3,327.0,-0.7,1.8,2470.116,13.33,0.015,82.4
2019-07-15T05:12:26,42.805,6.029,0.005,0.001,-0.048,101.0,105.0,97.0,13.4,1505.3,325.4,-0.7,1.8,2470.059,13.33,0.005,78.7
2019-07-15T05:15:27,42.805,6.029,0.0,-0.02,-0.047,101.0,106.0,100.0,13.3,1505.3,325.4,-0.7,1.8,2470.154,13.33,0.02,180.0
2019-07-15T05:18:28,42.805,6.029,0.013,-0.021,-0.041,103.0,104.0,99.0,13.3,1505.3,326.8,-0.7,1.9,2470.134,13.33,0.024,148.2
2019-07-15T05:21:29,42.805,6.029,0.023,-0.021,0.005,103.0,104.0,99.0,13.4,1505.3,326.9,-0.7,1.9,2470.128,13.33,0.031,132.4
2019-07-15T05:24:30,42.805,6.029,0.016,-0.007,-0.04,106.0,105.0,98.0,13.4,1505.3,324.0,-0.7,1.8,2470.145,13.33,0.017,113.6
2019-07-15T05:27:31,42.805,6.029,-0.001,-0.001,-0.017,103.0,104.0,98.0,13.3,1505.3,324.3,-0.7,1.8,2470.161,13.33,0.001,225.0
2019-07-15T05:30:32,42.805,6.029,-0.008,-0.026,-0.061,103.0,105.0,98.0,13.4,1505.3,326.5,-0.7,1.8,2470.164,13.33,0.027,197.1
2019-07-15T05:33:33,42.805,6.029,-0.031,-0.019,-0.058,103.0,104.0,100.0,13.4,1505.3,324.1,-0.7,1.8,2470.157,13.33,0.036,238.5
2019-07-15T05:36:34,42.805,6.029,0.0,0.0,-0.025,101.0,105.0,99.0,13.4,1505.3,327.0,-0.7,1.8,2470.159,13.33,0.0,0.0
2019-07-15T05:39:35,42.805,6.029,0.013,-0.009,-0.031,102.0,105.0,99.0,13.4,1505.3,325.4,-0.7,1.8,2470.119,13.33,0.015,124.7
2019-07-15T05:42:36,42.805,6.029,0.013,-0.02,-0.005,101.0,104.0,97.0,13.4,1505.3,327.1,-0.7,1.8,2470.14,13.33,0.023,147.0
2019-07-15T05:45:37,42.805,6.029,-0.002,-0.01,-0.054,101.0,103.0,98.0,13.4,1505.3,326.8,-0.7,1.8,2470.12,13.33,0.01,191.3
2019-07-15T05:48:38,42.805,6.029,0.017,-0.006,-0.01,102.0,104.0,98.0,13.4,1505.3,326.9,-0.7,1.9,2470.12,13.33,0.018,109.4
2019-07-15T05:51:39,42.805,6.029,-0.004,-0.029,-0.019,102.0,102.0,98.0,13.4,1505.3,325.5,-0.7,1.8,2470.12,13.33,0.029,187.8
2019-07-15T05:54:40,42.805,6.029,0.013,-0.021,-0.02,102.0,102.0,98.0,13.4,1505.3,327.4,-0.7,1.8,2470.178,13.33,0.024,148.2
2019-07-15T05:57:41,42.805,6.029,-0.004,0.006,-0.031,102.0,103.0,98.0,13.4,1505.3,328.6,-0.7,1.9,2470.129,13.33,0.007,326.3
2019-07-15T06:00:42,42.805,6.029,0.015,0.0,-0.017,102.0,104.0,98.0,13.3,1505.3,325.6,-0.7,1.8,2470.135,13.33,0.015,90.0
2019-07-15T06:03:43,42.805,6.029,0.021,0.004,-0.033,102.0,103.0,98.0,13.4,1505.3,325.5,-0.7,1.8,2470.149,13.33,0.021,79.2
2019-07-15T06:06:44,42.805,6.029,0.028,0.012,-0.034,101.0,104.0,97.0,13.4,1505.3,326.2,-0.7,1.9,2470.134,13.33,0.03,66.8
2019-07-15T06:09:45,42.805,6.029,-0.014,-0.005,-0.034,100.0,104.0,98.0,13.3,1505.3,324.2,-0.7,1.8,2470.147,13.33,0.014,250.4
2019-07-15T06:12:46,42.805,6.029,-0.007,0.01,-0.045,102.0,105.0,99.0,13.3,1505.3,325.1,-0.7,1.8,2470.105,13.33,0.012,325.0
2019-07-15T06:15:47,42.805,6.029,-0.001,-0.011,-0.044,104.0,106.0,98.0,13.4,1505.3,328.6,-0.7,1.8,2470.125,13.33,0.011,185.2
2019-07-15T06:18:48,42.805,6.029,0.021,-0.019,-0.016,101.0,104.0,98.0,13.3,1505.3,326.3,-0.7,1.8,2470.101,13.33,0.028,132.1
2019-07-15T06:21:49,42.805,6.029,0.01,-0.006,-0.028,100.0,104.0,97.0,13.4,1505.3,325.3,-0.7,1.9,2470.146,13.33,0.011,121.0
2019-07-15T06:24:50,42.805,6.029,0.027,-0.001,-0.058,99.0,105.0,97.0,13.3,1505.3,323.5,-0.7,1.8,2470.155,13.33,0.027,92.1
2019-07-15T06:27:51,42.805,6.029,0.003,-0.006,-0.024,102.0,103.0,97.0,13.3,1505.3,325.2,-0.7,1.9,2470.127,13.33,0.006,153.4
2019-07-15T06:30:52,42.805,6.029,-0.052,-0.005,-0.096,100.0,103.0,97.0,13.3,1505.3,326.4,-0.7,1.9,2470.154,13.33,0.052,264.5
2019-07-15T06:33:53,42.805,6.029,0.018,0.005,-0.049,101.0,103.0,98.0,13.4,1505.3,324.7,-0.7,1.8,2470.128,13.33,0.018,74.5
2019-07-15T06:36:54,42.805,6.029,0.0,-0.006,-0.017,101.0,103.0,98.0,13.3,1505.3,324.7,-0.7,1.8,2470.118,13.33,0.006,180.0
2019-07-15T06:39:55,42.805,6.029,-0.028,0.005,-0.038,103.0,105.0,98.0,13.4,1505.3,326.3,-0.7,1.8,2470.122,13.33,0.028,280.1
2019-07-15T06:42:56,42.805,6.029,0.01,-0.013,-0.038,100.0,106.0,97.0,13.3,1505.3,325.8,-0.7,1.9,2470.102,13.33,0.016,142.4
2019-07-15T06:45:57,42.805,6.029,-0.026,-0.022,-0.069,101.0,106.0,97.0,13.3,1505.3,323.5,-0.8,1.8,2470.137,13.33,0.034,229.8
2019-07-15T06:48:58,42.805,6.029,0.016,0.003,-0.027,101.0,104.0,96.0,13.4,1505.3,324.5,-0.7,1.8,2470.088,13.33,0.016,79.4
2019-07-15T06:51:59,42.805,6.029,0.001,-0.016,-0.022,102.0,102.0,97.0,13.3,1505.3,325.5,-0.8,1.8,2470.113,13.33,0.016,176.4
2019-07-15T06:55:00,42.805,6.029,0.009,-0.004,-0.005,102.0,103.0,98.0,13.3,1505.3,324.1,-0.7,1.8,2470.151,13.33,0.009,114.0
2019-07-15T06:58:01,42.805,6.029,0.0,-0.006,-0.062,101.0,104.0,99.0,13.4,1505.3,323.0,-0.7,1.8,2470.136,13.33,0.006,180.0
2019-07-15T07:01:02,42.805,6.029,0.008,-0.001,-0.019,101.0,103.0,97.0,13.4,1505.3,325.9,-0.7,1.9,2470.126,13.33,0.008,97.1
2019-07-15T07:04:03,42.805,6.029,0.012,0.003,0.023,101.0,104.0,98.0,13.4,1505.3,324.4,-0.8,1.9,2470.088,13.33,0.012,76.0
2019-07-15T07:07:04,42.805,6.029,0.03,-0.003,0.024,101.0,105.0,98.0,13.3,1505.3,326.1,-0.7,1.9,2470.126,13.33,0.03,95.7
2019-07-15T07:10:05,42.805,6.029,0.015,0.001,-0.021,103.0,104.0,98.0,13.4,1505.3,326.1,-0.7,1.9,2470.101,13.33,0.015,86.2
2019-07-15T07:13:06,42.805,6.029,0.037,-0.015,0.012,102.0,102.0,98.0,13.4,1505.3,327.5,-0.7,1.9,2470.093,13.33,0.039,112.1
2019-07-15T07:16:07,42.805,6.029,0.048,0.007,0.045,101.0,103.0,98.0,13.4,1505.3,327.2,-0.7,1.8,2470.117,13.33,0.048,81.7
2019-07-15T07:19:08,42.805,6.029,0.043,0.005,0.011,103.0,104.0,99.0,13.4,1505.3,327.1,-0.7,1.8,2470.074,13.33,0.043,83.4
2019-07-15T07:22:09,42.805,6.029,0.041,-0.002,-0.019,102.0,104.0,98.0,13.4,1505.3,323.5,-0.7,1.8,2470.124,13.33,0.041,92.8
2019-07-15T07:25:10,42.805,6.029,0.06,-0.02,-0.004,102.0,105.0,97.0,13.4,1505.3,324.7,-0.7,1.9,2470.1,13.33,0.063,108.4
2019-07-15T07:28:11,42.805,6.029,0.024,0.005,0.018,101.0,103.0,98.0,13.4,1505.3,327.0,-0.7,1.8,2470.112,13.33,0.024,78.2
2019-07-15T07:31:12,42.805,6.029,0.023,0.008,0.022,103.0,104.0,97.0,13.4,1505.3,326.1,-0.7,1.8,2470.066,13.33,0.024,70.8
2019-07-15T07:34:13,42.805,6.029,0.045,-0.006,0.026,104.0,104.0,99.0,13.4,1505.3,326.3,-0.7,1.9,2470.103,13.33,0.045,97.6
2019-07-15T07:37:14,42.805,6.029,0.054,-0.006,0.01,101.0,105.0,97.0,13.3,1505.3,324.9,-0.7,1.8,2470.111,13.33,0.054,96.3
2019-07-15T07:40:15,42.805,6.029,0.035,0.011,0.009,102.0,104.0,97.0,13.4,1505.3,326.2,-0.7,1.9,2470.067,13.33,0.036,72.6
2019-07-15T07:43:16,42.805,6.029,0.008,-0.007,-0.018,102.0,103.0,98.0,13.3,1505.3,326.6,-0.7,1.8,2470.052,13.33,0.01,131.2
2019-07-15T07:46:17,42.805,6.029,0.011,0.002,0.017,100.0,105.0,99.0,13.3,1505.3,326.0,-0.7,1.8,2470.103,13.33,0.011,79.7
2019-07-15T07:49:18,42.805,6.029,0.04,-0.001,0.032,100.0,104.0,97.0,13.4,1505.3,328.4,-0.7,1.8,2470.107,13.33,0.04,91.4
2019-07-15T07:52:19,42.805,6.029,0.031,-0.005,-0.005,101.0,105.0,97.0,13.4,1505.3,324.9,-0.7,1.8,2470.127,13.33,0.031,99.2
2019-07-15T07:55:20,42.805,6.029,-0.018,-0.008,-0.071,100.0,105.0,97.0,13.4,1505.3,326.3,-0.7,1.9,2470.057,13.33,0.019,246.0
2019-07-15T07:58:21,42.805,6.029,-0.012,-0.01,-0.045,102.0,105.0,97.0,13.3,1505.3,326.8,-0.7,1.8,2470.126,13.33,0.015,230.2
2019-07-15T08:01:22,42.805,6.029,0.008,-0.011,-0.049,101.0,103.0,98.0,13.4,1505.3,325.5,-0.7,1.8,2470.1,13.33,0.013,144.0
2019-07-15T08:04:23,42.805,6.029,0.01,0.001,-0.015,101.0,104.0,97.0,13.4,1505.3,326.7,-0.7,1.8,2470.111,13.33,0.01,84.3
2019-07-15T08:07:24,42.805,6.029,0.0,0.01,-0.014,102.0,104.0,99.0,13.4,1505.3,328.3,-0.7,1.9,2470.084,13.33,0.01,0.0
2019-07-15T08:10:25,42.805,6.029,0.012,-0.004,-0.01,100.0,104.0,99.0,13.4,1505.3,323.2,-0.8,1.9,2470.118,13.33,0.012,108.4
2019-07-15T08:13:26,42.805,6.029,0.037,-0.006,0.007,101.0,104.0,98.0,13.4,1505.3,326.3,-0.7,1.8,2470.091,13.33,0.037,99.2
2019-07-15T08:16:27,42.805,6.029,0.018,0.011,-0.004,100.0,106.0,97.0,13.4,1505.3,325.9,-0.7,1.8,2470.082,13.33,0.021,58.6
2019-07-15T08:19:28,42.805,6.029,0.006,-0.002,-0.021,101.0,103.0,98.0,13.3,1505.3,326.4,-0.7,1.9,2470.036,13.33,0.006,108.4
2019-07-15T08:22:29,42.805,6.029,0.025,-0.012,-0.022,100.0,106.0,98.0,13.3,1505.3,325.2,-0.7,1.8,2470.093,13.33,0.027,115.6
2019-07-15T08:25:30,42.805,6.029,0.0,-0.012,-0.004,101.0,105.0,98.0,13.4,1505.3,325.2,-0.7,1.8,2470.109,13.33,0.012,180.0
2019-07-15T08:28:31,42.805,6.029,0.017,0.019,-0.022,100.0,106.0,98.0,13.3,1505.3,324.9,-0.7,1.8,2470.078,13.33,0.025,41.8
2019-07-15T08:31:32,42.805,6.029,0.021,-0.007,-0.022,102.0,104.0,98.0,13.4,1505.3,326.2,-0.7,1.8,2470.049,13.33,0.022,108.4
2019-07-15T08:34:33,42.805,6.029,0.037,0.003,0.019,102.0,105.0,99.0,13.3,1505.3,327.0,-0.8,1.8,2470.041,13.33,0.037,85.4
2019-07-15T08:37:34,42.805,6.029,0.017,0.016,-0.018,101.0,105.0,98.0,13.4,1505.3,325.4,-0.8,1.9,2470.05,13.33,0.023,46.7
2019-07-15T08:40:35,42.805,6.029,0.009,0.016,-0.013,102.0,103.0,98.0,13.4,1505.3,325.3,-0.7,1.8,2470.058,13.33,0.018,29.4
2019-07-15T08:43:36,42.805,6.029,0.017,0.006,-0.011,101.0,105.0,98.0,13.3,1505.3,327.5,-0.7,1.8,2470.068,13.33,0.018,70.6
2019-07-15T08:46:37,42.805,6.029,0.016,-0.012,-0.044,100.0,103.0,98.0,13.3,1505.3,327.6,-0.7,1.8,2470.06,13.33,0.02,126.9
2019-07-15T08:49:38,42.805,6.029,0.006,0.026,0.0,101.0,104.0,97.0,13.4,1505.3,323.0,-0.7,1.9,2470.058,13.33,0.026,13.0
2019-07-15T08:52:39,42.805,6.029,0.017,-0.011,-0.02,101.0,103.0,97.0,13.4,1505.3,324.9,-0.8,1.9,2470.023,13.33,0.02,122.9
2019-07-15T08:55:40,42.805,6.029,-0.014,0.001,-0.053,103.0,105.0,97.0,13.4,1505.3,325.2,-0.7,1.8,2470.096,13.33,0.014,274.1
2019-07-15T08:58:41,42.805,6.029,-0.011,-0.001,-0.029,102.0,105.0,97.0,13.3,1505.3,327.2,-0.7,1.8,2470.05,13.33,0.011,264.8
2019-07-15T09:01:42,42.805,6.029,0.018,0.0,-0.019,102.0,106.0,97.0,13.4,1505.3,327.3,-0.7,1.9,2470.023,13.33,0.018,90.0
2019-07-15T09:04:43,42.805,6.029,0.023,0.0,0.0,101.0,104.0,98.0,13.4,1505.3,324.2,-0.7,1.9,2470.05,13.33,0.023,90.0
2019-07-15T09:07:44,42.805,6.029,0.043,0.003,0.011,101.0,103.0,97.0,13.3,1505.3,326.6,-0.7,1.8,2470.011,13.33,0.043,86.0
2019-07-15T09:10:45,42.805,6.029,0.019,-0.002,-0.012,100.0,103.0,97.0,13.4,1505.3,327.1,-0.7,1.8,2470.063,13.33,0.019,96.0
2019-07-15T09:13:46,42.805,6.029,0.015,-0.002,-0.032,101.0,106.0,98.0,13.4,1505.3,323.7,-0.7,1.8,2470.058,13.33,0.015,97.6
2019-07-15T09:16:47,42.805,6.029,-0.003,0.006,-0.01,101.0,105.0,97.0,13.4,1505.3,325.0,-0.7,1.9,2470.047,13.33,0.006,333.4
2019-07-15T09:19:48,42.805,6.029,0.022,0.002,0.005,104.0,105.0,97.0,13.4,1505.3,325.9,-0.7,1.8,2470.046,13.33,0.022,84.8
2019-07-15T09:22:49,42.805,6.029,0.011,-0.017,-0.013,99.0,105.0,98.0,13.4,1505.3,326.8,-0.7,1.9,2470.032,13.33,0.02,147.1
2019-07-15T09:25:50,42.805,6.029,0.0,0.007,-0.019,100.0,104.0,97.0,13.4,1505.3,324.9,-0.7,1.8,2470.015,13.33,0.007,0.0
2019-07-15T09:28:51,42.805,6.029,0.022,0.009,-0.007,101.0,104.0,99.0,13.3,1505.3,326.8,-0.7,1.8,2470.061,13.33,0.023,67.8
2019-07-15T09:31:52,42.805,6.029,0.018,-0.006,-0.028,100.0,105.0,97.0,13.4,1505.3,327.2,-0.7,1.8,2470.002,13.33,0.018,108.4
2019-07-15T09:34:53,42.805,6.029,0.011,-0.015,-0.053,102.0,106.0,97.0,13.4,1505.3,326.1,-0.7,1.8,2470.031,13.33,0.018,143.7